Regional Weather Roundup
Issued by NWS Grand Forks, ND

Home | Current Version | Previous Version | Graphics & Text | Print | Product List | Glossary On
Versions: 1 2 3 4 5 6 7 8 9 10 11 12 13 14 15 16 17 18 19 20 21 22 23 24 25 26 27 28 29 30 31 32 33 34 35 36 37 38 39 40 41 42 43 44 45 46 47 48 49 50
000
ASUS43 KFGF 211431
RWRFGF
PRAIRIE TO PINES  WEATHER ROUNDUP
NATIONAL WEATHER SERVICE EASTERN NORTH DAKOTA/GRAND FORKS ND
800 AM CST SUN DEC 21 2014

 **SATELLITE DATA USED TO AUGMENT SKY COVER AT AUTOMATED STATIONS**
 *****  WEATHER ACROSS EASTERN NORTH DAKOTA  *****

CITY           SKY/WX    TMP DP  RH WIND       PRES   REMARKS
GRAND FORKS    CLOUDY    30  29  96 S16       29.70F WCI  19
GRAND FRKS AFB CLOUDY    29  29 100 S14       29.70S WCI  18
GRAND FRKS NWS   N/A     30 N/A N/A S21         N/A  WCI  17
DEVILS LAKE    CLEAR     18   9  68 SE5       29.60F WCI  11
FARGO          CLOUDY    32  28  85 S15       29.75F WCI  22
WAHPETON ARPT  CLOUDY    32  28  86 S13       29.75F WCI  22
$$

 ***** WEATHER ACROSS CENTRAL AND WESTERN NORTH DAKOTA  *****

CITY           SKY/WX    TMP DP  RH WIND       PRES   REMARKS
BISMARCK       PTCLDY    17  15  92 E6        29.60F WCI   9
MINOT          CLEAR     17  14  88 SE3       29.55F
JAMESTOWN      FOG       25  22  88 S9        29.65S VSB 3/4 WCI  15
MINOT AFB      CLEAR     12  12  99 S5        29.54F WCI   5
GARRISON         N/A     20  18  92 SE5       29.55F WCI  13
WILLISTON      CLEAR     15  13  91 CALM      29.49F
DICKINSON      CLEAR     24  19  81 S8        29.49F WCI  15
HETTINGER      CLEAR     24  19  81 SE5       29.54F WCI  18
$$

 *****  OTHER AIRPORT OBSERVATIONS IN OUR AREA  *****

CITY           SKY/WX    TMP DP  RH WIND       PRES   REMARKS
WALHALLA         N/A     27  27 100 S8        29.65S FOG     WCI  18
GRAFTON AIRPOR NOT AVBL
VALLEY CITY AR FOG       27  27 100 S16G39    29.67F VSB<1/4 WCI  14
CANDO          FAIR      12  10  92 SE6       29.60F WCI   3
CAVALIER APRT  CLOUDY    27  27 100 S12G17    29.66S FOG     WCI  16
GWINNER        CLOUDY    32  32 100 MISG      29.71F
SHEYENNE NWR     N/A     30  28  91 S10       29.95S WCI  21
ROLLA          FAIR      16  16 100 S7        29.57F WCI   6
 ***** THE ABOVE OBSERVATIONS ARE NON NWS ARE NOT QUALITY
       CONTROLLED AND MAY MIS-REPORT RAIN FOR SNOW...
$$

  *****  WEATHER ACROSS NORTHERN MINNESOTA  *****

CITY           SKY/WX    TMP DP  RH WIND       PRES   REMARKS
FLAG ISLAND    HVY SNOW  28  27  93 S17       29.73S VSB 1/4 WCI  16
WARROAD        CLOUDY    30  27  86 SE6       29.73F WCI  24
ROSEAU         CLOUDY    30  27  86 S12       29.71F WCI  21
HALLOCK        MIX PCPN  30  30 100 CALM      29.68S
THF RVR FALLS  CLOUDY    30  28  93 S13G18    29.72F WCI  20
BAUDETTE       CLOUDY    29  27  92 S8        29.75F FOG     WCI  21
WASKISH        CLOUDY    28  28 100 SE3       29.77F FOG
CROOKSTON      CLOUDY    30  30 100 S20       29.73S FOG     WCI  18
STEPHEN NDAWN    N/A     30  30 100 S16         N/A  WCI  19
GREENBUSH NDAW   N/A     30  30 100 S1          N/A
$$
  *****  WEATHER ACROSS CENTRAL AND WEST MINNESOTA  *****

CITY           SKY/WX    TMP DP  RH WIND       PRES   REMARKS
FOSSTON        CLOUDY    28  27  93 S15       29.73F FOG     WCI  17
BEMIDJI        CLOUDY    29  28  96 S10       29.75F FOG     WCI  20
PARK RAPIDS    CLOUDY    30  29  96 S12       29.78F FOG     WCI  20
ELBOW LAKE     CLOUDY    30  29  99 S16       29.77F FOG     WCI  18
WADENA         CLOUDY    28  28 100 S12G20    29.78F FOG     WCI  18
DETROIT LAKES  CLOUDY    30  30 100 S15       29.76F FOG     WCI  19
MOORHEAD       CLOUDY    30  30 100 S18       29.76S FOG     WCI  18
FERGUS FALLS   CLOUDY    30  28  93 S14G21    29.80F FOG     WCI  20
MORRIS MN      CLOUDY    30  30 100 S10       29.78F FOG     WCI  21
STAPLES        CLOUDY    28  28 100 S12G18    29.79F FOG     WCI  18
$$
  *****  WEATHER ELSEWHERE ACROSS MINNESOTA  *****

CITY           SKY/WX    TMP DP  RH WIND       PRES   REMARKS
DULUTH         FRZ DRZL  30  27  88 S14       29.87F FOG     WCI  19
INTRNTL FALLS  LGT SNOW  29  26  89 S7        29.80F FOG     WCI  22
ELY            CLOUDY    28  27  93 S12G17    29.86F WCI  18
CLOQUET        CLOUDY    30  28  93 SE6       29.87F FOG     WCI  24
WHEATON        CLOUDY    28  27  93 SE9       29.78F FOG     WCI  20
BRAINERD       CLOUDY    30  29  96 S12G21    29.82F FOG     WCI  20
HIBBING        CLOUDY    30  26  85 S10       29.84F WCI  21
ALEXANDRIA     CLOUDY    30  29  96 S14       29.79F FOG     WCI  19
SAINT CLOUD    FOG       34  31  88 SE9       29.84F VSB 1/2
MINNEAPOLIS    CLOUDY    33  32  96 SE13      29.89F FOG     WCI  24
$$

  *****  WEATHER ACROSS SOUTH DAKOTA  *****

CITY           SKY/WX    TMP DP  RH WIND       PRES   REMARKS
SIOUX FALLS    FOG       32  31  96 SE9       29.75F VSB 1/4 WCI  24
BROOKINGS      NOT AVBL
WATERTOWN      CLOUDY    29  29 100 S9        29.73F FOG     WCI  20
HURON          FOG       30  30 100 SE13      29.71F VSB 1/2 WCI  20
SISSETON         N/A     30  29  96 S10       29.73F WCI  21
ABERDEEN       FOG       31  30  96 S13       29.68F VSB 1   WCI  21
MITCHELL       FOG       31  31 100 SE15      29.72F VSB 1/2 WCI  20
PIERRE         CLEAR     24  22  91 SE10      29.61F WCI  14
MOBRIDGE       CLEAR     25  22  88 E9        29.58F WCI  15
RAPID CITY     MOCLDY    25  19  78 SW3       29.54F
$$

  *****  SOME WEATHER IN NEARBY STATES *****

CITY           SKY/WX    TMP DP  RH WIND       PRES   REMARKS
GLASGOW MT     CLOUDY    25  20  81 E14       29.38F WCI  13
GREAT FALLS MT MOCLDY    41  33  73 SW21G28   29.34F
CHEYENNE WY    CLOUDY    36  18  48 S9G26     29.69F
SCOTTSBLUFF NE PTCLDY    21  16  81 E8        29.65F WCI  11
OMAHA NE       CLOUDY    37  35  92 S20       29.89F FOG
DES MOINES IA  CLOUDY    39  34  82 S14       29.98F
DAVENPORT IA   CLOUDY    36  32  85 S12       30.12S
CHICAGO IL     CLOUDY    32  27  81 S8        30.20F WCI  25
EAU CLAIRE WI  CLOUDY    32  28  85 SE8       29.97F FOG     WCI  25
LA CROSSE WI   CLOUDY    35  32  88 S10       30.02F FOG
$$

  *****  SOME NATIONAL WEATHER *****

CITY           SKY/WX    TMP DP  RH WIND       PRES   REMARKS
LA GUARDIA NY  CLOUDY    33  26  75 N6        30.31S
RALEIGH NC     CLOUDY    39  33  79 E3        30.32R
ATLANTA GA     CLOUDY    46  45  93 E10       30.19S FOG
NEW ORLEANS LA CLOUDY    53  48  83 NE7       30.11S
OKLAHOMA CITY  CLOUDY    45  39  81 S14       30.01F
ALBUQUERQUE NM MOCLDY    31  24  75 SW6       30.04F
SALT LAKE CITY LGT RAIN  39  35  86 S16       29.98R
LOS ANGELES CA PTCLDY    53  47  79 CALM      30.13S
BOISE ID       CLOUDY    43  40  89 SE6       29.84R
SEATTLE WA     CLOUDY    51  46  83 SW12G24   29.78R
$$

*** WEATHER ACROSS MANITOBA...SASKATCHEWAN AND ONTARIO ***
                ***ONTARIO***

CITY           SKY/WX    TMP DP  RH WIND       PRES   REMARKS
GERALDTON      LGT SNOW  27  27 100 SE5       29.99F WCI  21
THUNDER BAY    CLOUDY    34  28  80 S3        29.99
SIOUX LOOKOUT  LGT SNOW  27  27 100 S6        29.82  FOG     WCI  20
TORONTO        MOCLDY    28  23  80 W5        30.31S WCI  23
BIG TROUT LK   CLOUDY    27  27 100 SE12      29.85F WCI  16
PICKLE LAKE    FRZ DRZL  27  25  93 S6        29.85F WCI  20
DRYDEN         CLOUDY    27  27 100 S10       29.79F WCI  17
KENORA         LGT SNOW  27  27 100 S10       29.74F VSB 1   WCI  17
$$
                *** MANITOBA***

CITY           SKY/WX    TMP DP  RH WIND       PRES   REMARKS
BRANDON        FOG       27  27 100 SE3       29.58F VSB 1/8
DAUPHIN        LGT SNOW  25  23  93 E2        29.59F
ISLAND LAKE    FLURRIES  25  25 100 SE7       29.73F WCI  17
PILOT MOUND      N/A     23  21  93 CALM        N/A
THE PAS        LGT SNOW  23  21  93 SE7       29.59F VSB 1   WCI  15
THOMPSON       FRZ DRZL  18  18 100 NE3       29.69
WINNIPEG       CLOUDY    28  27  93 S13       29.66  FOG     WCI  18
LYNN LAKE      FLURRIES  12  10  92 SE8       29.63S WCI   1
CHURCHILL      FLURRIES  16  14  93 W6        29.75S WCI   7
GILLAM         FRZ DRZL  23  19  86 SW6       29.75S WCI  16
$$
                ***SASKATCHEWAN***

CITY           SKY/WX    TMP DP  RH WIND       PRES   REMARKS
ESTEVAN        PTCLDY    12  10  92 E6        29.49F WCI   3
KINDERSLEY     CLEAR     19  16  86 E7        29.28F WCI  10
LLOYDMINSTER   SNOW      16  14  93 E15       29.32F VSB 1/4 WCI   1
PRINCE ALBERT  CLOUDY    21  19  93 SE3       29.49  FOG
REGINA         PTCLDY    14  12  92 SE13      29.45F WCI   0
YORKTON        FOG       27  27 100 S9        29.50F VSB 1/2 WCI  17
N. BATTLEFORD  FRZ RAIN  19  18  93 SE13G20   29.40F VSB 5/8 WCI   7
LA RONGE       FLURRIES  18  16  93 NE7       29.53  WCI   8
SASKATOON      FOG       18  18 100 E10       29.43F VSB 1   WCI   6
SWIFT CURRENT  CLEAR     25  19  80 S15       29.29F WCI  12
$$
NOTE: THESE ARE AUTOMATED STATIONS WITH LIMITED QUALITY CONTROL
      "FAIR" INDICATES FEW OR NO CLOUDS BELOW 12,000 FEET WITH NO
      SIGNIFICANT WEATHER AND/OR OBSTRUCTIONS TO VISIBILITY.
      SKY/WX - SKY CONDITION AND SIGNIFICANT WEATHER.
      TMP - AIR TEMPERATURE.    DP   - DEWPOINT TEMPERATURE.
      RH  - RELATIVE HUMIDITY.  PRES - PRESSURE.
      HX  - HEAT INDEX.         WCI  - WIND CHILL INDEX.
$


USA.gov is the U.S. government's official web portal to all federal, state and local government web resources and services.